Back to catalog

STARLINK-38174

AliveCommunicationsSSO
NORAD 100104·PAYLOAD·🇺🇸 United States

Launched Jul 21, 2026 from Vandenberg Space Force Base

Loading…

Next Passes (next 24 hours)

TLE

FreshSource: Space-Track

Epoch: Sep 14, 2026, 00:39 UTC

1 A0104U 26166D   26257.02761887  .00104240  00000-0  69097-3 0  9992
2 A0104  97.2834 275.0430 0001323  64.3158 295.8244 15.75199137  8580

Track STARLINK-38174 in real time with AllMySat

Download on the App Store